Weather in Koskovo

Russia / Vologda Oblast     59°53′11″N   45°59′16″E
temp.,
°C
wind,
m/s
gust,
m/s
humid.,
%
clouds,
%
prec.,
mm/h
press.,
hPa
HPBL,
m
8 may, sat
sat800:00+3sw39930 0.0 1013196
03:00+2sw27930 0.0 1015132
06:00+5ssw278527 0.0 1016203
09:00+11ssw35645 0.0 1016639
12:00+14ssw344581 0.0 10162176
15:00+14sse354890 0.0 10151913
18:00+13se385394 0.0 1013424
21:00+8ese31175100 0.0 1013242
9 may, sun
sun900:00+8se41372100 0.0 1011414
03:00+9se51383100 0.0 1008560
06:00+10se51485100 0.1 1007760
09:00+10sse61487100 0.7 1007997
12:00+11sse51390100 2.8 1008786
15:00+11ssw2995100 4.3 1009488
18:00+10sw2799100 6.8 1009366
21:00+8wsw1698100 13.3 1011351
10 may, mon
mon1000:00+7wnw4797100 5.8 1013409
03:00+4nw4997100 8.3 1017750
06:00+4nw4118979 0.1 1021789
09:00+8nw47635 0.1 10241277
12:00+11nw46435 0.0 10251921
15:00+13nw3539100 0.0 10262067
18:00+12w13535 0.0 1027179
21:00+6sw227067 0.0 102921
11 may, tue
tue1100:00+5sw23788 0.0 103041
03:00+4ssw2679100 0.0 1031107
06:00+7ssw31070100 0.0 1031300
09:00+13sw47576 0.0 1031673
12:00+17sw565223 0.0 10301245
15:00+19wsw465035 0.0 10291552
18:00+18wsw36626 0.0 1029344
21:00+12sw2485100 0.0 103065
12 may, wed
wed1200:00+10sw378937 0.0 1031132
03:00+9sw269423 0.0 1032108
06:00+12wsw247920 0.0 1032166
09:00+18sw23585 0.0 1031660
12:00+21sw344640 0.0 10301308
15:00+22sw334343 0.0 10291442
18:00+20sw13585 0.0 102981
21:00+14ssw22750 0.0 102921